Location: F�rnigen
(46.7347°N, 8.5226°E)
Time: 13:40:02
(UTC+00:00)

Daily predictions for brighter satellites

Satellite Brightness Start Highest point End
(mag) Time Altitude Azimuth Time Altitude Azimuth Time Altitude Azimuth
Cosmos 2233 Rocket 4.2 17:24:58 10° SSE 17:30:49 48° E 17:36:44 10° NNE
NOSS 2-3 (E) 4.3 17:27:23 10° S 17:31:19 36° ESE 17:35:49 10° NE
STARLINK-1044 4.2 17:27:28 10° SSW 17:31:24 43° SE 17:35:20 10° ENE
STARLINK-1010 3.2 17:28:42 10° WSW 17:31:56 68° NNW 17:35:12 10° ENE
Cosmos 44 3.1 17:27:39 10° NNW 17:32:00 58° NE 17:36:28 10° SE
STARLINK-1031 3.9 17:28:54 10° SW 17:32:48 49° SE 17:36:45 10° ENE
STARLINK 1040 3.2 17:30:26 10° WSW 17:33:12 51° NNW 17:35:57 10° NE
Lacrosse 4 Rocket 3.0 17:29:45 10° WSW 17:33:39 35° NW 17:37:39 10° NNE
Cosmos 1238 Rocket 4.4 17:27:46 10° SSW 17:34:14 79° W 17:40:56 10° N
Cosmos 1633 3.9 17:33:39 10° SSW 17:37:06 44° WNW 17:40:37 10° N
Sich 1 3.2 17:33:29 10° SSW 17:37:46 78° W 17:42:03 10° N
STARLINK-24 4.0 17:35:25 10° WSW 17:39:24 58° NNW 17:43:23 10° ENE
Cosmos 1939 Rocket 3.2 17:35:57 10° SE 17:39:56 48° ENE 17:43:57 10° N
STARLINK-1029 3.0 17:37:07 10° WSW 17:40:17 75° NNW 17:43:28 10° ENE
STARLINK-1037 3.9 17:37:14 10° SW 17:41:15 51° SE 17:45:16 10° ENE
USA 234 4.2 17:35:52 10° ENE 17:41:44 37° N 17:47:36 10° WNW
STARLINK-29 3.0 17:41:17 10° WNW 17:44:40 82° NNE 17:48:01 10° ESE
CZ-4 R/B 1.4 17:40:47 10° SSE 17:44:58 84° ENE 17:49:09 10° NNW
Cosmos 1656 Rocket 4.4 17:40:12 10° SSE 17:45:01 32° ESE 17:49:55 10° NE
NOSS 2-3 (D) 4.0 17:42:10 10° SSW 17:46:16 45° ESE 17:50:59 10° NE
STARLINK-1059 3.8 17:42:14 10° SW 17:46:17 55° SE 17:50:18 10° ENE
SL-27 R/B 2.8 17:43:04 10° NNW 17:46:24 65° WSW 17:49:40 10° S
STARLINK-1016 3.5 17:44:05 10° WSW 17:47:19 55° NNW 17:50:34 10° NE
STARLINK-1008 3.6 17:44:27 10° WSW 17:47:43 55° NNW 17:51:01 10° NE
USA 229 DEB 3.8 17:41:40 10° SW 17:48:13 82° NW 17:55:11 10° NE
USA 229 3.8 17:41:46 10° SW 17:48:20 83° NW 17:55:16 10° NE
STARLINK-81 4.1 17:45:05 10° WSW 17:49:03 55° NNW 17:53:01 10° ENE
Cosmos 1470 Rocket 3.8 17:45:28 10° SSE 17:49:37 45° E 17:53:49 10° NNE
STARLINK-54 4.1 17:47:00 10° W 17:50:56 52° NNW 17:54:53 10° ENE
STARLINK-1025 3.6 17:47:50 10° WSW 17:51:03 52° NNW 17:54:15 10° NE
STARLINK-1057 3.8 17:47:12 10° SW 17:51:15 60° SE 17:55:07 11° ENE
STARLINK-75 4.3 17:49:05 10° W 17:52:13 34° NNW 17:55:22 10° NE
STARLINK-77 4.1 17:48:26 10° W 17:52:22 53° NNW 17:56:19 10° ENE
STARLINK-1017 3.6 17:49:30 10° W 17:52:43 51° NNW 17:55:51 11° NE
STARLINK-22 4.2 17:50:00 10° W 17:53:09 37° NNW 17:56:16 10° NE
STARLINK-25 4.1 17:50:06 10° W 17:54:02 52° NNW 17:57:55 10° ENE
Centaur D AC-28 4.4 17:43:47 10° WSW 17:54:12 21° SSW 17:58:26 10° SSE
STARLINK-41 4.3 17:51:33 10° W 17:54:41 35° NNW 17:57:44 11° NE
NOSS 3-1 (A) 3.3 17:49:54 10° SSW 17:55:23 77° SE 18:01:49 10° NE
Cosmos 1862 Rocket 3.5 17:51:28 10° N 17:55:49 72° E 18:00:09 10° SSE
STARLINK-71 4.2 17:52:01 10° W 17:55:57 49° NNW 17:59:44 11° NE
Cosmos 2242 Rocket 4.0 17:51:47 10° N 17:56:08 44° ENE 18:00:29 10° SSE
STARLINK-1034 3.7 17:52:07 10° SW 17:56:13 65° SE 17:59:53 13° ENE
COSMO-SKYMED 1 2.9 17:51:52 10° N 17:56:13 71° WNW 18:00:31 10° SSW
STARLINK-79 4.2 17:53:25 10° W 17:57:21 51° NNW 18:01:05 11° NE
STARLINK-52 3.0 17:54:16 10° WNW 17:57:39 88° SSW 18:00:47 12° ESE
Okean-O 4.1 17:53:34 10° S 17:57:46 42° W 18:02:01 10° NNW
STARLINK-1048 3.7 17:54:36 10° W 17:57:49 48° NNW 18:00:44 12° NE
STARLINK-78 4.2 17:55:07 10° W 17:59:03 50° NNW 18:02:42 12° NE
STARLINK-1049 3.8 17:56:18 10° W 17:59:31 47° NNW 18:02:23 12° NE
STARLINK-57 4.3 17:56:54 10° W 18:00:49 48° NNW 18:04:24 12° NE
STARLINK-1068 3.6 17:57:04 10° SW 18:01:11 70° SE 18:04:40 14° ENE
STARLINK-1051 3.8 17:58:03 10° W 18:01:16 46° NNW 18:04:04 13° NE
CENTAUR R/B 4.3 17:55:36 10° NW 18:01:23 24° NNE 18:07:34 11° ENE
STARLINK-1028 3.8 17:58:27 10° W 18:01:40 46° NNW 18:04:27 13° NE
FALCON 9 DEB 3.5 17:58:26 10° WNW 18:01:51 64° SW 18:05:16 10° SE
STARLINK-64 4.4 17:58:34 10° W 18:01:55 36° NNW 18:04:55 12° NE
STARLINK-49 4.2 17:58:26 10° W 18:02:21 48° NNW 18:05:52 12° NE
Cosmos 1812 3.4 17:59:23 10° NNW 18:03:13 59° W 18:07:01 10° S
STARLINK-1021 3.9 18:00:14 10° W 18:03:26 45° NNW 18:06:09 13° NE
Cosmos 2369 Rocket 2.2 17:57:53 10° SSW 18:03:33 90° NE 18:09:18 10° NNE
STARLINK-27 4.3 18:00:06 10° W 18:04:00 48° NNW 18:07:27 13° NE
Ariane Rocket 3.4 17:59:57 10° SE 18:04:44 42° ENE 18:09:31 10° N
Cosmos 921 Rocket 3.6 18:00:31 10° SSW 18:04:59 63° WNW 18:09:30 10° NNE
STARLINK-1019 3.9 18:02:01 10° W 18:05:13 44° NNW 18:07:52 14° NE
STARLINK-74 4.3 18:01:46 10° W 18:05:40 47° NNW 18:09:03 13° NE
STARLINK-1012 3.9 18:03:49 10° W 18:07:01 43° NNW 18:09:35 14° NE
STARLINK-39 4.3 18:03:26 10° W 18:07:20 46° NNW 18:10:38 14° NE
Lacrosse 5 3.5 18:04:32 10° SSE 18:07:27 15° ESE 18:08:21 15° ESE
STARLINK-31 4.3 18:05:07 10° W 18:09:00 45° NNW 18:12:14 14° NE
Okean 1-7 3.7 18:05:18 10° N 18:09:12 32° ENE 18:13:05 10° SE
STARLINK-1026 4.0 18:07:25 10° W 18:10:36 42° NNW 18:13:02 15° NE
STARLINK-69 4.4 18:07:00 10° W 18:10:52 43° NNW 18:14:00 15° NE
STARLINK-1014 3.8 18:07:40 10° W 18:11:04 49° NNW 18:13:39 16° NE
STARLINK-1060 3.6 18:06:58 10° SW 18:11:07 80° SSE 18:14:12 17° ENE
SJ-6B 4.0 18:11:06 19° E 18:11:43 20° ENE 18:14:31 10° NNE
STARLINK-21 4.4 18:08:29 10° W 18:12:21 44° NNW 18:15:26 15° NE
STARLINK-1013 4.0 18:09:15 10° W 18:12:25 41° NNW 18:14:47 16° NE
Cosmos 1703 Rocket 4.0 18:08:34 10° N 18:12:48 40° ENE 18:17:01 10° SE
ATLAS 3B R/B 4.4 18:08:30 10° NW 18:12:59 18° N 18:17:31 10° NE
CZ-2D R/B 3.5 18:09:55 10° S 18:13:48 74° WSW 18:17:42 10° NNW
STARLINK-45 4.5 18:10:23 10° W 18:14:13 42° NNW 18:17:12 15° NE
STARLINK-1009 4.0 18:11:03 10° W 18:14:14 40° NNW 18:16:31 17° NE
STARLINK-70 4.4 18:11:58 10° W 18:15:49 42° NNW 18:18:44 16° NE
STARLINK-1015 4.1 18:12:53 10° W 18:16:05 39° NNW 18:18:17 17° NE
STARLINK-1030 3.5 18:11:59 10° WSW 18:16:08 86° SSE 18:19:01 19° ENE
Cosmos 990 Rocket 4.4 18:11:23 10° N 18:16:13 39° ENE 18:20:03 15° ESE
Cosmos 1833 4.2 18:10:34 10° NNW 18:16:22 81° ENE 18:22:06 10° SSE
STARLINK-76 4.4 18:13:29 10° W 18:17:20 42° NNW 18:20:12 16° NE
STARLINK-23 4.5 18:15:10 10° W 18:19:00 42° NNW 18:21:47 17° NE
NOSS 2-3 (C) 3.7 18:15:59 10° SW 18:20:19 90° SE 18:25:31 10° NE
STARLINK-32 4.5 18:16:50 10° W 18:20:41 41° NNW 18:23:24 17° NE
STARLINK-1020 3.6 18:16:56 10° WSW 18:21:05 89° N 18:23:47 21° ENE
SJ 16-02 1.9 18:17:37 10° N 18:21:42 35° ENE 18:23:52 22° ESE
Cosmos 1869 Rocket 4.4 18:18:23 10° SSE 18:22:07 28° E 18:25:51 10° NNE
STARLINK-40 4.5 18:18:30 10° W 18:22:20 41° NNW 18:24:58 18° NE
FREGAT/IRIS 3.9 18:23:34 21° NE 18:23:34 21° NE 18:24:57 10° N
STARLINK-1047 3.6 18:19:21 10° WSW 18:23:31 85° NNW 18:26:11 22° ENE
H-2A R/B 2.5 18:18:51 10° SE 18:23:55 44° ENE 18:29:04 10° N
DMSP B5D1-3 4.5 18:18:56 10° NNE 18:24:07 85° ESE 18:29:17 10° SSW
ARGOS 3.6 18:20:18 10° SE 18:25:18 39° ENE 18:30:20 10° N
Cosmos 1937 Rocket 4.1 18:21:02 10° N 18:25:52 35° ENE 18:28:21 23° ESE
STARLINK-1052 3.6 18:21:56 10° WSW 18:26:05 84° NNW 18:28:35 23° ENE
CSL-04 Rocket 4.3 18:23:04 10° S 18:28:32 60° WSW 18:33:58 10° NNW
Cosmos 2263 4.4 18:25:19 10° SSW 18:31:06 78° WNW 18:36:54 10° NNE
Cosmos 1346 Rocket 2.9 18:27:42 10° SSW 18:31:42 80° WNW 18:35:40 10° N
BREEZE-M DEB (TANK) 3.5 18:29:47 10° WNW 18:32:36 67° SSW 18:37:09 19° ESE
STARLINK-1064 4.4 18:29:08 10° SSW 18:32:50 33° SE 18:33:36 30° ESE
YAOGAN 1 4.1 18:31:06 10° SSW 18:35:08 38° W 18:39:11 10° NNW
STARLINK-1023 4.3 18:32:20 10° W 18:35:15 31° NNW 18:36:28 23° NNE
STARLINK-43 3.8 18:32:02 10° NW 18:35:37 46° NNE 18:36:38 35° ENE
USA 186 4.0 18:38:08 10° N 18:38:08 10° N 18:38:13 10° N
STARLINK-1033 3.7 18:31:53 10° WSW 18:36:00 75° NNW 18:38:07 28° NE
STARLINK-1041 4.3 18:34:02 10° SSW 18:37:49 35° SE 18:38:25 33° ESE
Nadezhda 4 Rocket 4.2 18:32:29 10° N 18:38:34 48° ENE 18:44:38 10° SSE
Cosmos 1464 Rocket 4.0 18:33:29 10° S 18:39:45 65° E 18:46:05 10° NNE
Cosmos 44 Rocket 3.5 18:36:43 10° NNW 18:41:20 49° NE 18:42:58 35° E
OE (NEXTSAT) 4.3 18:38:36 10° W 18:42:06 74° S 18:42:51 51° ESE
STARLINK-1038 4.1 18:38:56 10° SSW 18:42:46 38° SE 18:43:12 37° ESE
STARLINK-1035 3.9 18:39:00 10° WSW 18:43:14 65° NNW 18:45:13 30° NE
STARLINK-1024 3.8 18:41:54 10° WSW 18:46:01 66° NNW 18:47:43 33° NE
Cosmos 2297 Rocket 3.4 18:42:54 10° N 18:47:20 23° NE 18:47:51 22° NE
Cosmos 1933 Rocket 4.0 18:43:12 10° SSW 18:47:34 62° WNW 18:51:56 10° N
STARLINK-1046 4.0 18:43:48 10° SSW 18:47:41 41° SE 18:47:57 41° SE
Meteor 1-20 Rocket 4.1 18:46:40 10° S 18:52:09 86° WNW 18:57:45 10° N
STARLINK-1039 3.9 18:48:42 10° SSW 18:52:39 45° SE 18:52:44 45° SE
STARLINK-1007 4.4 18:50:56 10° WNW 18:53:49 29° N 18:54:17 27° N
STARLINK-1027 4.2 18:49:43 10° W 18:53:55 56° NNW 18:55:28 34° NE
Meteor 1-18 Rocket 4.2 18:48:59 10° N 18:54:57 86° E 19:00:46 10° S
STARLINK-1032 4.0 18:51:53 10° WSW 18:55:59 59° NNW 18:57:16 39° NE
Cosmos 405 3.1 18:53:08 10° NNW 18:56:41 75° W 18:58:22 29° S
STARLINK-80 4.1 18:53:17 10° NW 18:56:54 39° NNE 18:57:10 39° NNE
ADEOS Rocket 3.9 18:49:40 10° N 18:57:24 69° WNW 19:04:58 10° SSW
Cosmos 2221 Rocket 4.2 18:53:17 10° N 18:56:58 39° NE 18:56:58 39° NE
STARLINK-1045 3.9 18:53:37 10° SW 18:57:31 49° SSE 18:57:31 49° SSE
COSMOS 2487 3.1 18:54:23 10° NNW 18:57:47 53° WSW 18:59:29 25° S
Cosmos 1943 Rocket 3.9 18:52:57 10° WSW 18:57:52 31° NW 19:02:47 10° NNE
MOS 1 4.2 18:52:55 10° SSE 18:58:36 87° ENE 19:04:17 10° NNW
CZ-2C R/B 3.2 18:53:38 10° SSE 18:59:22 73° ENE 19:05:02 10° N
Cosmos 2034 Rocket 3.9 18:54:13 10° S 19:00:18 66° E 19:06:24 10° NNE
STARLINK-1011 4.1 18:56:53 10° WSW 19:00:57 56° NNW 19:02:02 42° NNE
Cosmos 468 Rocket 3.9 18:56:39 10° SSW 19:01:55 74° ESE 19:07:15 10° NNE
Okean 1 3.3 18:58:29 10° N 19:02:31 81° W 19:04:38 27° S
STARLINK-1050 3.8 18:58:36 10° SW 19:02:26 54° SSE 19:02:26 54° SSE
Timation 2 Rocket 4.1 18:56:02 10° NNW 19:02:58 80° ENE 19:07:09 26° SE
Lacrosse 5 rocket 2.9 18:59:27 10° NW 19:03:19 26° NNE 19:04:00 25° NNE
STARLINK-1036 4.1 19:01:55 10° W 19:05:59 54° NNW 19:06:51 44° NNE
Cosmos 2227 Rocket 3.3 19:01:20 10° N 19:05:52 26° NE 19:05:52 26° NE
BREEZE-M DEB (TANK) 3.3 19:04:06 10° WNW 19:06:06 55° NW 19:06:06 55° NW
SPOT 3 Rocket 3.5 19:05:25 44° SE 19:06:53 62° ENE 19:12:02 10° N
STARLINK-1055 3.8 19:03:31 10° SW 19:07:11 55° S 19:07:11 55° S
Meteor 1-14 Rocket 4.1 19:05:09 10° S 19:10:41 88° ESE 19:16:18 10° NNE
STARLINK-1044 4.2 19:06:55 10° W 19:10:58 51° NNW 19:11:38 46° NNE
Meteor 2-11 Rocket 4.5 19:05:22 10° SSW 19:11:28 79° W 19:17:35 10° N
STARLINK-1031 4.2 19:08:11 10° W 19:12:06 47° NNW 19:12:40 43° N
STARLINK-1022 3.9 19:08:29 10° SW 19:12:00 56° S 19:12:00 56° S
Cosmos 1898 Rocket 3.6 19:09:00 10° NNW 19:14:11 72° WSW 19:17:01 27° S
Gbstr 26 Del rocket 2.9 19:10:08 10° SW 19:14:18 76° SSE 19:14:28 75° SE
STARLINK-1042 4.0 19:13:25 10° SW 19:16:45 54° SSW 19:16:45 54° SSW
Resurs 1-3 4.4 19:19:42 38° NNE 19:19:42 38° NNE 19:22:37 10° N
STARLINK-1037 4.3 19:16:53 10° W 19:20:54 47° NNW 19:21:07 46° N
STARLINK-1056 4.2 19:18:23 10° SW 19:21:33 50° SW 19:21:33 50° SW
Cosmos 1092 Rocket 3.9 19:16:56 10° N 19:23:16 65° ENE 19:24:43 51° SE
USA 234 3.9 19:21:54 34° NE 19:23:53 43° NNE 19:29:58 10° NW
STARLINK-1059 4.4 19:21:58 10° W 19:25:57 45° NNW 19:25:58 45° NNW
Cosmos 1763 Rocket 3.4 19:22:10 10° SSW 19:27:24 84° WNW 19:32:43 10° NNE
STARLINK-1054 4.4 19:23:21 10° SW 19:26:20 46° SW 19:26:20 46° SW
Cosmos 2219 3.5 19:24:43 10° NNW 19:29:58 52° NE 19:29:58 52° NE
Meteor 2-4 Rocket 3.7 19:24:38 10° N 19:30:35 86° E 19:32:13 51° SSE
Cosmos 1570 Rocket 4.0 19:25:37 10° SSW 19:30:09 66° S 19:30:09 66° S
NOSS 3-2 (A) 4.2 19:25:24 10° NW 19:32:34 54° NE 19:34:00 48° ENE
NOSS 3-2 (C) 4.5 19:27:19 10° NNW 19:34:11 43° NE 19:35:19 40° ENE
Resurs 01 Rocket 3.2 19:38:52 26° N 19:38:52 26° N 19:40:55 10° N
Cosmos 2195 Rocket 4.3 19:32:17 10° N 19:38:25 71° E 19:38:26 71° E
SL-08 RB Rocket 4.3 19:45:56 55° W 19:45:56 55° W 19:50:08 10° NNW
SJ-6B 4.4 19:46:42 32° WNW 19:46:42 32° WNW 19:49:38 10° NNW
Lacrosse 5 2.9 19:44:36 10° SW 19:47:38 36° SW 19:47:38 36° SW
MetOp-A 4.2 19:50:10 73° WSW 19:50:16 73° WSW 19:55:40 10° NNW
CENTAUR R/B 3.5 19:46:40 10° NW 19:54:08 46° NE 19:54:46 45° NE
Meteor 1-13 Rocket 4.4 19:53:47 10° NNW 19:59:12 73° NW 19:59:12 73° NW
SJ 16-02 3.3 19:56:30 10° NW 20:00:07 25° W 20:00:55 24° WSW
H-2A R/B 3.9 19:58:50 10° SSW 20:03:28 29° W 20:08:13 10° NNW
ATLAS 3B R/B 3.7 19:59:48 10° NNW 20:05:09 33° NNE 20:05:09 33° NNE
USA 238 DEB 4.0 20:24:31 10° NW 20:30:43 68° NW 20:30:43 68° NW
USA 238 4.0 20:24:37 10° NW 20:30:48 68° NW 20:30:48 68° NW
Cosmos 2297 Rocket 3.4 20:26:19 10° NNW 20:29:41 37° NW 20:29:41 37° NW
Lacrosse 5 rocket 4.3 20:38:37 10° NW 20:39:39 17° NW 20:39:39 17° NW
Cosmos 2227 Rocket 3.9 20:44:58 10° NNW 20:47:42 29° NW 20:47:42 29° NW
USA 234 4.4 21:09:15 39° NW 21:09:15 39° NW 21:13:03 10° NW
CENTAUR R/B 4.2 21:37:22 10° NW 21:41:57 38° WNW 21:41:57 38° WNW
